Temperature
15 15 14 14 15 15 15 15 15 15 15 15 15 15 15 15 15 15 15 15 15 15 15 15 15 14 14 14 14 14 13 13 13 13 13 12 12 12 12 12 11 11 11
14 14 14 14 14 15 15 15 15 15 15 15 15 15 15 15 15 15 15 15 15 15 15 14 14 14 14 14 14 13 13 13 13 13 12 12 12 12 12 11 11 11 11
14 14 14 14 14 14 14 15 14 15 14 14 14 14 14 14 14 15 15 15 15 15 14 14 14 14 14 14 14 13 13 13 13 13 12 12 12 12 11 11 11 11 11
14 14 14 14 14 14 14 14 14 14 14 14 14 14 14 14 14 14 14 14 14 14 14 14 14 14 14 14 13 13 13 13 13 12 12 12 12 11 11 11 11 11 11
14 14 14 14 14 14 14 14 14 14 14 14 14 14 14 14 14 14 14 14 14 14 14 14 14 14 14 13 13 13 13 13 12 12 12 12 12 11 11 11 11 11 10
14 14 14 14 14 14 14 14 14 14 14 14 14 14 14 14 14 14 14 14 14 14 14 14 14 14 13 13 13 13 13 13 12 12 12 12 11 11 11 11 10 10 10
14 13 13 13 14 14 14 14 14 13 13 13 13 13 13 13 13 14 14 14 14 14 14 14 13 13 13 13 13 12 12 12 12 12 12 11 11 11 11 10 10 10 10
13 13 13 13 13 13 13 13 13 13 13 13 13 12 12 13 13 13 13 13 13 13 13 13 13 13 13 13 13 12 12 12 12 11 11 11 11 11 10 10 10 10 9
13 13 13 13 13 13 13 13 13 13 13 13 13 12 12 12 12 13 13 13 13 13 13 13 13 13 13 12 12 12 12 12 11 11 11 11 10 10 10 10 9 9 9
12 12 12 13 13 13 13 13 13 13 13 12 12 12 13 12 12 12 12 12 12 12 12 12 12 12 12 12 12 12 11 11 11 11 10 10 10 10 10 9 9 9 9
12 12 12 12 12 12 13 13 12 12 12 12 12 12 12 12 12 12 11 12 12 12 12 12 12 12 12 11 11 11 11 11 10 10 10 10 10 10 9 9 9 9 8
11 12 12 12 12 12 12 12 12 12 12 12 12 12 12 12 12 12 12 12 11 11 11 11 11 11 11 11 11 11 11 10 10 10 10 10 9 9 9 9 8 8 8
11 11 11 11 12 12 12 12 12 12 12 12 11 11 11 11 12 12 11 11 11 11 11 11 11 11 11 10 10 10 10 10 10 9 9 9 9 9 8 8 8 8 8
11 11 11 11 11 11 11 11 11 11 11 11 11 11 11 11 11 11 11 11 10 10 10 10 10 10 10 10 10 9 9 9 9 9 9 9 8 8 8 8 7 7 7
10 10 10 10 11 11 11 11 11 11 11 11 11 10 10 10 10 10 10 10 10 9 9 9 10 10 9 9 9 9 9 9 8 8 8 8 8 7 7 7 7 7 7
10 10 10 10 10 10 10 10 10 10 10 10 10 10 10 10 10 10 10 10 10 9 9 9 9 9 9 8 8 8 8 8 8 8 7 7 7 7 6 6 6 6 6
9 9 9 9 9 9 9 9 9 9 9 9 9 9 9 9 9 9 9 9 9 9 9 8 8 8 8 8 7 7 7 7 7 7 7 6 6 6 6 6 6 6 6
9 9 9 9 9 9 9 9 9 9 9 9 9 9 9 9 9 9 8 8 8 8 8 8 8 8 7 7 7 7 7 6 6 6 6 6 6 5 5 5 5 5 5
8 8 8 8 8 8 8 8 8 8 8 8 8 8 8 8 8 8 8 8 8 8 7 7 7 7 7 6 6 6 6 6 6 6 5 5 5 5 5 5 5 5 4
7 7 7 7 7 7 7 7 7 8 8 8 7 7 7 7 7 7 7 7 7 7 7 7 7 6 6 6 6 6 5 5 5 5 5 5 4 4 4 4 4 4 4
7 7 7 7 7 7 7 7 7 7 7 7 7 7 7 7 7 7 7 6 6 6 6 6 6 6 6 5 5 5 5 4 4 4 4 4 4 4 4 3 3 3 3
6 6 6 6 6 6 6 6 6 6 6 6 6 6 6 6 6 6 6 6 6 6 6 5 5 5 5 5 5 4 4 4 4 4 4 3 3 3 3 3 3 3 3
5 5 5 5 5 5 5 5 5 5 6 6 6 6 6 6 5 5 5 5 5 5 5 5 5 5 5 5 4 4 4 3 3 3 3 3 3 3 2 2 2 2 2
4 5 5 5 5 5 4 4 5 5 5 5 5 5 5 5 5 5 5 4 4 5 5 5 4 4 4 4 4 3 3 3 3 2 2 2 2 2 2 2 2 2 2
4 4 4 4 4 4 4 4 4 4 4 4 4 4 4 4 4 4 4 4 4 4 4 4 4 4 3 3 3 3 3 2 2 2 2 2 2 2 2 1 1 1 1
3 3 3 3 3 3 3 3 3 3 3 3 3 3 3 3 3 3 3 3 3 3 3 3 3 3 3 3 2 2 2 2 1 1 1 1 1 1 1 1 1 1 1
Wind_Speed
10 9 9 11 11 12 11 9 8 7 7 7 7 7 7 9 11 11 11 13 13 12 11 10 10 9 8 7 6 6 5 5 5 5 5 5 5 5 5 5 5 5 6
10 10 9 9 10 12 12 10 9 7 5 5 5 7 8 9 11 12 12 13 13 13 12 11 10 9 9 8 7 7 6 6 6 6 6 6 6 6 6 6 6 7 7
13 10 9 8 9 12 12 9 8 6 5 4 5 5 6 8 9 11 12 12 12 13 13 12 11 10 10 9 8 7 7 7 6 6 6 7 7 7 7 8 8 9 9
15 11 9 9 11 11 9 7 6 5 5 5 4 4 4 6 8 9 10 11 11 11 11 12 11 10 10 9 9 9 8 7 7 6 6 7 7 8 9 9 9 9 9
15 11 9 8 11 8 7 8 6 5 5 5 5 4 4 4 5 7 7 10 11 11 11 11 11 11 10 10 9 9 8 7 7 7 7 7 8 8 9 9 9 9 9
13 11 9 10 10 8 7 7 7 5 5 5 4 3 3 4 4 5 6 7 9 11 11 10 9 9 10 10 9 8 8 8 8 8 8 8 8 8 8 9 8 9 8
12 10 9 10 10 9 10 9 5 6 4 3 2 1 2 2 4 5 4 5 6 9 10 10 9 8 7 8 9 8 8 8 8 8 9 9 9 9 9 8 8 7 7
11 10 10 10 10 9 9 9 6 5 4 5 4 3 1 2 3 4 4 5 5 5 6 8 9 8 8 7 7 8 8 8 8 9 9 9 9 9 9 8 8 7 7
10 9 10 10 10 9 9 9 9 8 6 5 5 5 4 4 2 2 3 4 5 4 4 5 7 8 9 7 6 6 7 7 8 9 9 9 8 8 8 8 7 6 6
8 8 9 10 10 9 9 10 9 7 8 7 4 4 3 3 3 2 2 3 4 5 5 5 6 7 8 7 7 7 6 7 8 8 8 8 8 7 7 6 5 5 5
7 7 7 8 9 8 9 9 8 8 7 7 5 3 3 3 3 3 4 3 3 4 5 5 5 6 7 7 6 7 7 7 7 8 7 7 7 6 6 5 4 5 5
5 7 7 7 7 7 8 9 9 9 8 7 5 4 4 4 4 4 4 4 4 4 4 4 5 5 6 7 7 7 7 6 7 7 7 7 6 5 4 4 4 4 4
3 5 5 6 6 7 8 8 8 9 9 9 8 6 5 5 4 3 4 4 4 3 2 3 4 5 6 7 6 7 7 6 6 6 6 5 3 3 3 3 3 3 4
3 4 5 5 6 7 8 8 7 8 8 8 8 7 6 5 4 4 4 4 4 4 4 4 2 4 5 6 6 7 6 7 6 5 4 4 3 3 3 3 3 3 3
2 4 4 4 5 5 7 7 7 7 8 8 8 8 6 5 5 5 5 5 5 6 7 5 3 4 5 6 7 6 6 7 6 5 4 3 2 2 2 2 3 3 2
2 3 3 3 3 3 4 6 6 7 8 8 7 7 7 5 5 5 5 5 5 5 6 4 3 3 4 4 7 7 6 7 7 6 5 4 4 3 3 2 2 2 2
1 2 3 3 3 3 4 4 5 6 7 7 6 8 8 6 5 5 4 5 5 4 5 3 2 2 3 4 4 4 5 5 5 6 6 6 5 5 4 3 3 2 2
1 2 3 3 3 4 4 4 5 5 7 7 7 7 7 5 6 5 5 6 6 5 5 5 2 2 3 4 4 3 3 4 4 5 6 6 6 5 5 4 3 2 2
1 1 1 2 3 4 4 4 4 5 5 6 6 7 7 6 7 6 6 6 5 5 4 4 3 2 1 2 2 2 2 2 3 4 6 5 5 5 5 4 4 3 3
1 1 1 2 2 3 3 3 4 4 4 5 5 6 7 8 8 8 7 7 5 5 4 4 3 2 2 2 3 3 2 2 2 1 3 3 4 4 4 4 4 3 3
3 2 1 2 2 2 3 4 4 4 4 5 5 5 6 8 9 9 7 7 7 5 5 5 4 3 3 3 4 3 3 1 1 1 1 1 2 2 3 4 4 4 4
4 3 2 2 3 3 4 4 4 4 4 4 5 5 4 5 7 8 10 9 9 8 8 6 5 5 5 4 3 4 3 2 2 2 2 1 1 2 3 4 4 4 4
4 4 3 3 3 3 5 4 4 3 3 4 4 4 3 4 4 4 5 6 7 9 10 7 7 7 6 7 7 5 4 3 3 3 2 1 1 2 3 4 4 4 4
4 4 4 4 4 4 5 5 6 3 3 3 3 4 4 4 4 4 3 2 3 4 5 5 6 6 5 6 7 6 5 3 2 0 2 2 1 1 1 2 3 3 3
4 4 4 4 4 4 6 6 6 2 2 2 2 3 3 3 5 5 4 4 3 2 2 4 5 6 7 9 9 6 5 4 2 1 1 2 1 0 1 1 2 1 1
4 4 4 4 4 4 5 6 6 2 2 2 2 2 3 4 4 5 4 5 5 3 4 4 3 4 5 6 8 6 7 5 3 2 2 2 2 1 1 1 1 2 2
Wind_Direction
172 170 170 170 171 171 172 173 178 185 194 201 202 198 195 190 187 186 191 194 196 198 200 201 202 203 207 208 213 219 225 233 244 252 257 262 266 270 275 282 286 290 293
174 173 172 174 176 178 179 181 185 188 197 198 203 201 192 186 188 191 195 199 202 202 205 208 212 215 220 221 224 227 234 241 249 254 258 262 264 266 270 275 281 282 284
175 174 176 179 182 182 181 182 187 187 190 195 203 197 188 190 191 195 198 200 203 207 210 214 219 222 225 227 230 236 241 245 249 252 256 259 262 266 268 273 277 277 278
177 174 177 183 183 180 179 180 182 184 190 192 197 199 193 193 197 200 201 203 203 206 212 216 219 222 225 229 236 242 245 247 247 249 256 262 266 269 271 273 276 278 279
179 175 179 180 179 178 181 184 185 183 187 194 199 202 202 201 201 199 202 205 205 205 208 213 217 221 224 229 237 243 247 247 247 249 257 264 269 272 273 275 277 280 281
179 176 177 176 175 177 182 183 181 184 185 186 189 204 219 215 207 207 208 205 206 207 209 210 211 218 224 229 235 241 247 249 250 252 256 261 267 270 274 277 279 281 285
178 179 180 179 179 184 188 182 180 181 188 169 148 210 293 252 231 225 210 204 205 205 204 205 204 204 211 220 228 234 244 252 255 258 259 260 263 266 270 274 280 286 291
179 183 183 183 183 183 185 186 176 180 188 174 164 161 235 289 262 234 213 208 213 201 203 205 201 201 203 205 219 227 236 249 257 262 263 260 259 261 266 268 277 282 289
178 183 186 184 186 184 189 191 186 186 193 196 184 176 180 218 248 260 226 216 209 212 213 198 201 202 201 199 202 213 226 239 253 262 266 261 258 260 261 266 275 281 288
180 182 185 187 189 189 191 193 191 192 187 196 201 208 203 182 191 234 251 226 216 218 218 208 197 199 196 193 196 204 217 232 249 261 265 265 264 263 262 266 275 283 292
182 183 182 186 191 193 193 193 194 194 195 199 200 196 204 213 210 210 240 235 233 231 223 212 199 193 191 189 191 200 211 229 248 257 260 262 264 263 260 264 279 290 293
183 186 184 186 192 196 197 196 196 198 201 203 208 204 195 195 204 206 231 237 240 240 230 220 209 194 187 188 192 198 205 220 236 246 254 257 258 260 262 264 275 292 300
187 192 191 193 200 203 199 198 199 202 200 200 204 214 215 218 204 200 211 233 248 249 230 229 220 193 188 190 194 196 202 211 225 235 242 246 252 256 257 262 276 288 299
188 193 194 197 205 206 202 200 205 209 206 207 212 213 219 222 210 205 203 210 240 247 234 230 211 200 192 190 197 198 201 207 213 220 223 238 241 247 247 255 270 284 299
185 189 201 202 206 204 202 201 209 212 210 213 214 215 222 224 216 215 207 201 210 235 238 224 212 206 201 194 195 195 202 205 205 204 199 204 216 236 244 251 268 282 301
185 189 208 206 206 208 207 205 212 214 213 219 218 217 223 225 220 214 213 219 216 222 239 222 215 211 200 204 198 192 202 198 198 192 196 203 218 227 231 243 261 268 271
199 196 208 206 208 215 213 211 218 213 215 223 223 219 225 218 220 220 214 216 219 214 234 242 219 203 194 202 200 193 192 191 193 195 200 207 213 216 217 228 240 251 252
216 204 203 206 214 222 221 218 227 224 220 221 223 222 227 221 221 220 220 223 224 215 217 228 230 205 209 199 186 188 187 184 194 203 207 208 207 212 216 221 227 226 230
282 222 200 221 229 231 227 228 230 234 233 230 227 226 227 218 226 224 221 224 226 220 211 206 211 215 205 183 161 165 181 197 208 209 205 208 216 220 217 215 216 211 215
333 272 245 250 248 248 245 243 244 246 246 244 238 232 229 224 227 224 223 221 216 212 204 196 198 197 197 184 165 174 197 221 217 198 206 208 216 219 216 211 208 208 212
354 332 299 294 289 268 257 260 257 255 249 249 248 244 241 235 232 229 224 215 206 210 203 201 200 199 196 183 192 179 185 178 237 175 179 221 211 219 225 214 213 217 218
4 358 346 317 299 293 284 276 269 257 250 249 254 255 248 240 238 236 228 220 208 208 207 203 205 208 204 191 168 171 160 156 230 196 162 236 180 213 234 234 236 227 220
4 355 347 336 324 311 313 310 295 268 259 257 252 250 257 247 242 230 229 223 221 219 209 200 202 207 195 186 171 176 180 185 203 181 143 217 209 223 239 243 235 223 219
353 351 343 339 337 332 336 331 326 293 265 261 258 249 242 241 230 211 199 207 229 231 213 204 200 199 190 176 176 176 170 144 105 116 148 188 207 239 292 280 239 222 216
342 344 340 338 334 331 339 342 342 313 289 281 272 256 241 241 233 215 195 197 215 226 187 180 179 175 170 167 160 142 143 145 171 194 165 163 173 322 329 310 297 282 229
331 332 331 328 321 319 328 337 340 321 307 304 301 276 247 242 236 229 210 195 200 205 170 151 144 143 145 156 164 165 162 161 163 189 186 149 147 102 334 312 326 331 328
Height
1516 1519 1523 1526 1529 1532 1535 1538 1541 1543 1545 1547 1549 1551 1552 1553 1554 1555 1556 1556 1557 1557 1557 1557 1557 1557 1556 1556 1556 1555 1555 1554 1554 1553 1552 1551 1550 1549 1548 1546 1545 1544 1543
1513 1516 1520 1523 1526 1530 1533 1536 1539 1541 1544 1546 1547 1549 1550 1551 1552 1553 1554 1555 1555 1555 1555 1555 1555 1555 1555 1554 1554 1553 1553 1552 1552 1551 1550 1549 1548 1547 1546 1545 1543 1542 1541
1509 1513 1516 1520 1524 1527 1531 1534 1536 1539 1541 1543 1545 1547 1548 1549 1550 1551 1552 1552 1553 1553 1553 1553 1553 1553 1553 1552 1552 1551 1551 1550 1549 1548 1548 1547 1546 1545 1543 1542 1541 1540 1538
1506 1509 1513 1517 1521 1524 1527 1530 1533 1536 1538 1540 1542 1544 1545 1546 1547 1548 1549 1549 1550 1550 1550 1550 1550 1550 1550 1550 1549 1548 1548 1547 1546 1546 1545 1544 1543 1542 1541 1539 1538 1537 1536
1502 1505 1509 1513 1517 1520 1523 1527 1529 1532 1534 1537 1539 1541 1542 1543 1544 1545 1545 1546 1546 1547 1547 1547 1547 1547 1547 1547 1546 1545 1545 1544 1543 1542 1541 1540 1539 1538 1537 1536 1535 1534 1532
1497 1501 1504 1508 1512 1516 1519 1523 1525 1529 1531 1534 1536 1537 1538 1539 1540 1541 1541 1542 1543 1543 1543 1543 1544 1543 1543 1543 1542 1542 1541 1540 1539 1538 1537 1536 1535 1534 1534 1533 1532 1530 1529
1493 1496 1500 1504 1507 1511 1514 1518 1521 1524 1527 1530 1532 1533 1534 1535 1536 1536 1537 1538 1538 1539 1539 1539 1539 1539 1539 1539 1539 1538 1537 1537 1536 1535 1533 1532 1531 1530 1530 1529 1528 1527 1525
1488 1492 1495 1499 1502 1506 1510 1513 1516 1519 1522 1525 1527 1528 1529 1531 1531 1532 1532 1533 1534 1534 1535 1534 1534 1534 1534 1534 1534 1534 1533 1532 1532 1531 1529 1528 1527 1526 1525 1524 1524 1523 1521
1483 1487 1491 1494 1498 1501 1504 1508 1511 1514 1516 1519 1522 1523 1524 1524 1525 1526 1527 1528 1529 1529 1530 1530 1529 1529 1529 1529 1529 1529 1528 1528 1527 1526 1525 1524 1523 1522 1521 1520 1519 1518 1517
1479 1482 1486 1489 1492 1496 1499 1502 1506 1509 1511 1513 1516 1518 1519 1520 1520 1520 1521 1523 1523 1524 1524 1524 1524 1524 1524 1524 1523 1523 1523 1523 1522 1521 1520 1519 1518 1517 1516 1515 1515 1514 1513
1474 1478 1481 1484 1487 1490 1494 1497 1500 1503 1505 1507 1509 1511 1513 1514 1515 1515 1514 1516 1517 1517 1518 1518 1518 1518 1518 1518 1518 1517 1517 1517 1517 1516 1515 1514 1513 1513 1512 1511 1511 1510 1509
1470 1473 1476 1479 1482 1485 1488 1491 1494 1496 1499 1501 1503 1505 1506 1507 1508 1509 1509 1509 1510 1511 1512 1512 1512 1512 1512 1512 1512 1511 1511 1511 1511 1511 1510 1509 1508 1508 1507 1507 1506 1506 1505
1465 1468 1471 1474 1477 1480 1482 1485 1488 1490 1492 1494 1496 1498 1500 1501 1503 1504 1504 1504 1504 1504 1505 1505 1506 1506 1506 1506 1506 1506 1505 1505 1505 1505 1504 1504 1503 1503 1503 1502 1502 1501 1500
1461 1464 1467 1469 1472 1474 1476 1479 1481 1484 1486 1488 1489 1492 1493 1494 1496 1497 1498 1499 1498 1498 1497 1498 1499 1499 1500 1500 1500 1500 1500 1500 1500 1499 1499 1498 1498 1498 1498 1498 1497 1497 1496
1457 1460 1462 1464 1466 1468 1470 1472 1474 1477 1479 1481 1483 1485 1486 1487 1489 1490 1491 1492 1493 1492 1491 1491 1492 1493 1494 1494 1494 1494 1494 1494 1494 1493 1493 1493 1493 1493 1493 1493 1493 1493 1492
1454 1456 1458 1459 1461 1463 1465 1467 1468 1470 1472 1474 1476 1477 1479 1480 1481 1482 1484 1485 1486 1486 1485 1484 1486 1487 1487 1488 1488 1488 1488 1488 1488 1488 1488 1488 1489 1489 1489 1489 1489 1488 1488
1451 1452 1454 1455 1457 1458 1459 1461 1463 1464 1465 1467 1468 1470 1471 1473 1473 1475 1476 1477 1478 1479 1478 1478 1479 1480 1481 1481 1482 1482 1482 1482 1482 1483 1483 1484 1484 1484 1484 1484 1484 1484 1484
1448 1449 1450 1452 1453 1454 1455 1456 1457 1458 1459 1460 1461 1463 1464 1465 1466 1467 1469 1469 1470 1471 1472 1471 1472 1473 1474 1475 1476 1476 1477 1477 1477 1477 1478 1479 1479 1479 1479 1480 1480 1480 1480
1445 1446 1447 1448 1449 1450 1451 1451 1452 1453 1453 1454 1455 1456 1457 1458 1459 1460 1461 1462 1463 1464 1465 1465 1465 1466 1467 1469 1470 1470 1471 1471 1472 1472 1473 1473 1474 1475 1475 1475 1476 1476 1476
1441 1442 1443 1444 1445 1446 1446 1447 1447 1447 1448 1448 1449 1450 1451 1451 1452 1453 1453 1454 1455 1456 1457 1458 1459 1459 1461 1462 1463 1464 1465 1467 1467 1467 1468 1469 1470 1471 1471 1472 1472 1472 1472
1438 1439 1440 1440 1441 1441 1441 1441 1441 1441 1442 1442 1443 1444 1444 1445 1445 1446 1446 1447 1448 1449 1450 1451 1452 1453 1454 1456 1457 1458 1460 1461 1462 1462 1463 1464 1465 1466 1467 1467 1468 1468 1469
1436 1436 1436 1436 1436 1436 1437 1437 1436 1436 1436 1436 1437 1437 1437 1438 1438 1439 1439 1440 1441 1442 1442 1443 1445 1446 1448 1450 1452 1453 1455 1456 1457 1458 1459 1460 1461 1462 1462 1463 1464 1464 1465
1433 1433 1433 1433 1432 1432 1432 1432 1432 1431 1430 1431 1431 1431 1431 1432 1432 1432 1432 1433 1434 1435 1437 1438 1439 1440 1443 1444 1446 1448 1449 1451 1452 1453 1455 1455 1457 1458 1459 1459 1460 1460 1461
1432 1431 1430 1429 1428 1428 1428 1427 1427 1426 1426 1425 1425 1425 1426 1426 1426 1426 1426 1426 1427 1429 1431 1432 1434 1436 1438 1440 1441 1443 1445 1446 1448 1449 1450 1451 1453 1454 1455 1455 1456 1457 1457
1429 1428 1427 1426 1425 1424 1424 1423 1423 1421 1421 1421 1420 1420 1421 1421 1421 1421 1421 1421 1422 1423 1425 1427 1429 1431 1432 1434 1436 1438 1439 1441 1443 1444 1446 1447 1448 1449 1451 1451 1452 1453 1454
1427 1426 1424 1423 1422 1421 1420 1420 1419 1418 1417 1416 1416 1416 1416 1416 1416 1416 1416 1416 1417 1418 1420 1421 1423 1425 1427 1429 1431 1434 1435 1437 1438 1440 1442 1443 1444 1446 1447 1448 1449 1450 1451